User: anonymous   Login
Location: Unspecified
(0.0000°N, 0.0000°E)
Time: 10:38:33
(UTC+00:00)
Language:

XW-2C - Orbit

View from above orbital plane
View from above orbital plane
View from above satellite
View from above satellite

Ground track
Ground track

The orbit data is extracted from the following two-line orbital elements,

1 40906U 15049H   18267.57236096 +.00000698 +00000-0 +40473-4 0  9995
2 40906 097.4631 269.2644 0016289 049.7963 310.4692 15.15320874166541
Epoch (UTC): 24 September 2018 13:44:11
Eccentricity: 0.0016289
inclination: 97.4631°
perigee height: 509 km
apogee height: 531 km
right ascension of ascending node: 269.2644°
argument of perigee: 49.7963°
revolutions per day: 15.15320874
mean anomaly at epoch: 310.4692°
orbit number at epoch: 16654

The dashed part of the orbit path shows where the satellite is in the earth's shadow,  

DLR